Regional Weather Roundup
Issued by NWS

Home | Current Version | Previous Version | Text Only | Print | Product List | Glossary On
Versions: 1 2 3 4 5 6 7 8 9 10 11 12 13 14 15 16 17 18 19 20 21 22 23 24 25 26 27 28 29 30 31 32 33 34 35 36 37 38 39 40 41 42 43 44 45 46 47 48 49 50
000
ASUS43 KDTX 071910
RWRMI
MICHIGAN HOURLY REGIONAL WEATHER ROUNDUP
NATIONAL WEATHER SERVICE DETROIT/PONTIAC MI
200 PM EST WED DEC 07 2016

NOTE: "FAIR" INDICATES FEW OR NO CLOUDS BELOW 12,000 FEET WITH NO
SIGNIFICANT WEATHER AND/OR OBSTRUCTION TO VISIBILITY.

MIZ047>049-052>055-059>063-066>070-074>076-081>083-072000-
SOUTHEAST LOWER MICHIGAN

CITY           SKY/WX    TMP DP  RH WIND       PRES   REMARKS
ADRIAN         MOSUNNY   34  25  69 W16       30.04F WCI  24
ALMA           MOSUNNY   37  23  56 SW12G20   29.95S WCI  29
ANN ARBOR      MOSUNNY   37  24  59 SW15      30.00F WCI  28
BAD AXE        CLOUDY    34  23  64 W21G32    29.90F WCI  22
CARO           MOSUNNY   38  25  60 SW16G24   29.92S WCI  29
DETROIT CITY   MOSUNNY   37  25  61 SW16      30.00F WCI  28
DETROIT        PTSUNNY   35  26  69 SW20      30.02F WCI  24
FLINT          SUNNY     38  22  52 W21G26    29.96S WCI  28
GROSSE ILE     CLOUDY    34  25  68 SW15G21   30.02S WCI  24
HILLSDALE      MOSUNNY   32  23  69 SW12G20   30.00F WCI  23
HOWELL         PTSUNNY   38  24  55 W16       29.97S WCI  29

CITY           SKY/WX    TMP DP  RH WIND       PRES   REMARKS
JACKSON        MOSUNNY   36  24  62 SW15G21   29.99F WCI  27
LAMBERTVILLE   PTSUNNY   35  23  62 W12G18    30.05S WCI  27
LANSING        SUNNY     37  22  54 W21       29.98S WCI  26
LAPEER         NOT AVBL
MASON          MOSUNNY   38  25  59 SW13G22   29.98S WCI  30
MONROE         PTSUNNY   34  26  72 SW16G26   30.03F WCI  24
MT. CLEMENS    PTSUNNY   39  25  58 SW16      29.96S WCI  30
PONTIAC        PTSUNNY   37  24  59 W12G23    29.95F WCI  29
PORT HOPE        N/A     35  23  61 W15G30    29.87F WCI  25
PORT HURON     MOSUNNY   37  25  60 SW12G18   29.96S WCI  30
TRI CITIES     MOSUNNY   36  23  59 W21G28    29.93F WCI  25
MIDLAND        FAIR      37  20  50 W16G23    29.91F WCI  28
TROY           SUNNY     38  23  53 SW12      30.00S WCI  31
SAGINAW HB     MOSUNNY   37  23  56 SW20G30   29.93S WCI  27
$$
MIZ043>046-050>051-056>058-064>065-071>073-077>080-072000-
SOUTHWEST LOWER MICHIGAN

CITY           SKY/WX    TMP DP  RH WIND       PRES   REMARKS
BATTLE CREEK   MOSUNNY   35  24  64 SW16      29.99F WCI  25
BENTON HARBOR  CLOUDY    34  24  67 SW14G25   30.05F WCI  25
BIG RAPIDS     PTSUNNY   34  20  58 SW18G26   29.90F WCI  23
COLDWATER      CLOUDY    35  23  62 SW13      30.01F WCI  26
FREMONT        CLOUDY    32  19  60 SW12G20   29.95S WCI  23
HOLLAND        PTSUNNY   35  26  69 W16       30.00F WCI  25
GRAND RAPIDS   PTSUNNY   33  23  66 W18       29.98F WCI  22
IONIA          PTSUNNY   34  24  67 SW21      29.96S WCI  22
KALAMAZOO      MOSUNNY   35  22  58 W12       30.01F WCI  27
LUDINGTON      CLOUDY    28  22  76 W13       29.94S WCI  18
MARSHALL       PTSUNNY   35  23  62 W14       29.99F WCI  26
MOUNT PLEASANT MOSUNNY   35  21  57 W15G22    29.92S WCI  25
MUSKEGON       CLOUDY    33  24  69 SW14G20   29.98F WCI  23
SOUTH HAVEN    PTSUNNY   33  24  70 W14G20    30.03S WCI  23
$$
MIZ016>042-072000-
NORTHERN LOWER MICHIGAN

CITY           SKY/WX    TMP DP  RH WIND       PRES   REMARKS
ALPENA         MOSUNNY   34  18  52 SW17G26   29.81S WCI  23
BEAVER ISLAND  CLOUDY    29  22  73 SW20G39   29.78S WCI  16
BELLAIRE       CLOUDY    30  21  68 SW14G24   29.85S WCI  19
CADILLAC       MOSUNNY   30  19  64 SW21G28   29.84S WCI  17
CHARLEVOIX     CLOUDY    31  22  71 SW22      29.83S WCI  18
FRANKFORT      CLOUDY    29  23  78 W12G21    29.89S WCI  19
GAYLORD        PTSUNNY   29  16  58 W25G35    29.79S WCI  14
GRAYLING       PTSUNNY   30  19  65 SW13G25   29.83F WCI  20
HARBOR SPRINGS CLOUDY    31  24  74 SW20G29   29.79S WCI  19
HOUGHTON LAKE  PTSUNNY   31  19  61 SW17G33   29.85F WCI  19
MANISTEE       FLURRIES  28  21  75 W15G23    29.92R WCI  16
OSCODA         PTSUNNY   37  19  48 SW16G28   29.84S WCI  28
PELLSTON       CLOUDY    31  19  61 SW16G25   29.78S WCI  20
ROGERS CITY    CLOUDY    32  19  58 W16G24    29.79S WCI  21
TRAVERSE CITY  PTSUNNY   31  19  61 SW17G25   29.85F WCI  19
$$
MIZ007>008-015-072000-
EASTERN UPPER MICHIGAN

CITY           SKY/WX    TMP DP  RH WIND       PRES   REMARKS
MACKINAC ISLAN CLOUDY    30  22  72 W20G36    29.75R WCI  18
NEWBERRY       CLOUDY    25  14  63 SW16G23   29.74S WCI  12
MUNISING         N/A     26  13  57 W8G20     29.76R WCI  18
$$
MIZ004>006-011>014-085-072000-
CENTRAL UPPER MICHIGAN

CITY           SKY/WX    TMP DP  RH WIND       PRES   REMARKS
MANISTIQUE     CLOUDY    26  15  62 SW12G17   29.78R WCI  16
SAWYER-GWINN   FLURRIES  21  12  68 W14G24    29.73  WCI   8
$$
MIZ001>003-009>011-084-072000-
WESTERN UPPER MICHIGAN

CITY           SKY/WX    TMP DP  RH WIND       PRES   REMARKS
$$

ABBREVIATIONS USED IN REMARKS
   TC - TEMPERATURE IN CELSIUS
  WCI - WIND CHILL INDEX
   HX - HEAT INDEX
  VSB - VISIBILITY





USA.gov is the U.S. government's official web portal to all federal, state and local government web resources and services.